DLH4LM EDDM-EPBY

Flight info

Callsign DLH4LM
Flight time 0h 51m
Altitude 39000
Route ANKER9N ANKER Y104 MAMOR L132 AGNAV DCT GOLOP DCT TOMTI DCT LUXUD
Aircraft CRJ9/M-SDFGIRWY/S

Departure

Time 2026-05-07 09:49
Airport Munich Airport (EDDM)

Arrival

Time 2026-05-07 10:40
Airport Ignacy Jan Paderewski Bydgoszcz Airport (EPBY)
Time Latitude Longitude Altitude Speed Heading
2026-05-07 09:05 48.35597 11.80227 1484 ft 0 kts 83°
2026-05-07 09:38 48.35596 11.80211 1458 ft 4 kts 83°
2026-05-07 09:38 48.35593 11.80172 1472 ft 2 kts 83°
2026-05-07 09:39 48.35587 11.80145 1473 ft 4 kts 44°
2026-05-07 09:39 48.35569 11.80141 1477 ft 4 kts 353°
2026-05-07 09:39 48.35549 11.80145 1477 ft 0 kts 353°
2026-05-07 09:41 48.35574 11.80141 1480 ft 7 kts 353°
2026-05-07 09:42 48.35645 11.80120 1481 ft 12 kts 336°
2026-05-07 09:42 48.35728 11.80076 1472 ft 13 kts 353°
2026-05-07 09:42 48.35815 11.80040 1478 ft 13 kts 312°
2026-05-07 09:42 48.35824 11.79913 1484 ft 12 kts 262°
2026-05-07 09:43 48.35813 11.79785 1476 ft 12 kts 263°
2026-05-07 09:43 48.35803 11.79656 1473 ft 12 kts 263°
2026-05-07 09:43 48.35812 11.79537 1482 ft 10 kts 322°
2026-05-07 09:43 48.35876 11.79517 1482 ft 10 kts 353°
2026-05-07 09:44 48.35919 11.79510 1475 ft 10 kts 354°
2026-05-07 09:44 48.35982 11.79499 1480 ft 11 kts 353°
2026-05-07 09:44 48.36063 11.79484 1476 ft 12 kts 354°
2026-05-07 09:44 48.36112 11.79563 1483 ft 12 kts 83°
2026-05-07 09:45 48.36122 11.79695 1474 ft 13 kts 83°
2026-05-07 09:45 48.36133 11.79840 1478 ft 15 kts 83°
2026-05-07 09:45 48.36146 11.80004 1483 ft 17 kts 83°
2026-05-07 09:45 48.36160 11.80185 1480 ft 18 kts 83°
2026-05-07 09:46 48.36175 11.80384 1480 ft 20 kts 83°
2026-05-07 09:46 48.36210 11.80579 1477 ft 14 kts 34°
2026-05-07 09:46 48.36278 11.80576 1475 ft 10 kts 346°
2026-05-07 09:46 48.36344 11.80533 1483 ft 11 kts 311°
2026-05-07 09:47 48.36382 11.80433 1482 ft 11 kts 291°
2026-05-07 09:47 48.36412 11.80325 1474 ft 11 kts 294°
2026-05-07 09:47 48.36444 11.80214 1476 ft 12 kts 294°
2026-05-07 09:47 48.36485 11.80070 1479 ft 17 kts 292°
2026-05-07 09:48 48.36518 11.79900 1483 ft 11 kts 265°
2026-05-07 09:48 48.36512 11.79824 1480 ft 33 kts 263°
2026-05-07 09:48 48.36454 11.79073 1480 ft 108 kts 263°
2026-05-07 09:48 48.36347 11.77653 1523 ft 161 kts 263°
2026-05-07 09:49 48.36188 11.75936 2323 ft 162 kts 264°
2026-05-07 09:49 48.36045 11.74319 3432 ft 152 kts 264°
2026-05-07 09:49 48.35933 11.72721 4255 ft 152 kts 265°
2026-05-07 09:49 48.35839 11.71097 4972 ft 160 kts 265°
2026-05-07 09:50 48.35741 11.69402 5670 ft 165 kts 264°
2026-05-07 09:50 48.35736 11.67659 6229 ft 173 kts 285°
2026-05-07 09:50 48.36560 11.66275 6746 ft 187 kts 321°
2026-05-07 09:50 48.37733 11.65378 7322 ft 197 kts 336°
2026-05-07 09:51 48.39141 11.64821 7767 ft 220 kts 344°
2026-05-07 09:51 48.40668 11.64418 8533 ft 223 kts 346°
2026-05-07 09:51 48.42212 11.64050 9344 ft 227 kts 346°
2026-05-07 09:51 48.43788 11.63671 10099 ft 231 kts 345°
2026-05-07 09:52 48.45380 11.63233 10817 ft 234 kts 344°
2026-05-07 09:52 48.47011 11.62915 11473 ft 244 kts
2026-05-07 09:52 48.48135 11.63387 11619 ft 269 kts 27°
2026-05-07 09:52 48.49545 11.65459 11754 ft 302 kts 60°
2026-05-07 09:53 48.50460 11.69593 12232 ft 328 kts 80°
2026-05-07 09:53 48.50827 11.73073 12654 ft 344 kts 83°
2026-05-07 09:53 48.51159 11.76723 13092 ft 359 kts 84°
2026-05-07 09:53 48.51537 11.80512 13594 ft 370 kts 82°
2026-05-07 09:54 48.51994 11.84356 14311 ft 374 kts 81°
2026-05-07 09:54 48.52333 11.86969 14757 ft 377 kts 80°
2026-05-07 09:54 48.52844 11.90865 15445 ft 380 kts 81°
2026-05-07 09:54 48.53338 11.94802 16129 ft 384 kts 81°
2026-05-07 09:55 48.54232 11.98608 16743 ft 390 kts 59°
2026-05-07 09:55 48.56046 12.01648 17377 ft 393 kts 35°
2026-05-07 09:55 48.58492 12.03445 17983 ft 393 kts 12°
2026-05-07 09:55 48.61140 12.03738 18531 ft 389 kts 349°
2026-05-07 09:56 48.63686 12.02641 19060 ft 387 kts 336°
2026-05-07 09:56 48.66364 12.01943 19475 ft 401 kts
2026-05-07 09:56 48.69081 12.03006 19946 ft 410 kts 26°
2026-05-07 09:56 48.71358 12.05589 20482 ft 412 kts 46°
2026-05-07 09:57 48.73361 12.08712 20971 ft 415 kts 42°
2026-05-07 09:57 48.75606 12.11475 21443 ft 418 kts 37°
2026-05-07 09:57 48.77744 12.14336 21832 ft 421 kts 52°
2026-05-07 09:57 48.79423 12.17908 22294 ft 423 kts 51°
2026-05-07 09:58 48.81699 12.20747 22610 ft 429 kts 27°
2026-05-07 09:58 48.84507 12.22183 23148 ft 425 kts
2026-05-07 09:58 48.87410 12.23128 23553 ft 429 kts 13°
2026-05-07 09:58 48.90336 12.24173 23792 ft 434 kts
2026-05-07 09:59 48.93346 12.24133 24112 ft 434 kts 355°
2026-05-07 09:59 48.96346 12.24702 24392 ft 440 kts 18°
2026-05-07 09:59 48.99020 12.26931 24703 ft 441 kts 41°
2026-05-07 09:59 49.01315 12.30034 25020 ft 442 kts 42°
2026-05-07 10:00 49.03763 12.32909 25336 ft 446 kts 34°
2026-05-07 10:00 49.06484 12.35212 25637 ft 449 kts 25°
2026-05-07 10:00 49.09352 12.37141 25958 ft 451 kts 23°
2026-05-07 10:00 49.12248 12.39005 26285 ft 453 kts 24°
2026-05-07 10:01 49.15141 12.40942 26570 ft 455 kts 25°
2026-05-07 10:01 49.18023 12.42984 26865 ft 458 kts 26°
2026-05-07 10:01 49.20913 12.45059 27140 ft 460 kts 26°
2026-05-07 10:01 49.23806 12.47186 27414 ft 463 kts 26°
2026-05-07 10:02 49.26678 12.49289 27677 ft 465 kts 26°
2026-05-07 10:02 49.29663 12.51421 27949 ft 468 kts 26°
2026-05-07 10:02 49.32574 12.53491 28242 ft 469 kts 24°
2026-05-07 10:02 49.35672 12.55095 28471 ft 472 kts 14°
2026-05-07 10:03 49.38891 12.56139 28713 ft 474 kts
2026-05-07 10:03 49.42150 12.56962 28946 ft 476 kts
2026-05-07 10:03 49.45420 12.57825 29179 ft 478 kts
2026-05-07 10:03 49.48689 12.58819 29398 ft 480 kts 11°
2026-05-07 10:04 49.51949 12.59873 29932 ft 474 kts 12°
2026-05-07 10:04 49.55075 12.61384 30283 ft 472 kts 27°
2026-05-07 10:04 49.57829 12.64085 30498 ft 469 kts 40°
2026-05-07 10:04 49.60269 12.67396 30745 ft 467 kts 47°
2026-05-07 10:05 49.62451 12.71133 30746 ft 471 kts 54°
2026-05-07 10:05 49.64499 12.75092 30910 ft 472 kts 55°
2026-05-07 10:05 49.66545 12.79057 31154 ft 473 kts 53°
2026-05-07 10:05 49.68667 12.82940 31408 ft 473 kts 52°
2026-05-07 10:06 49.70837 12.86767 31655 ft 473 kts 51°
2026-05-07 10:06 49.72986 12.90610 31930 ft 472 kts 52°
2026-05-07 10:06 49.75121 12.94471 32165 ft 473 kts 52°
2026-05-07 10:06 49.77258 12.98334 32422 ft 472 kts 52°
2026-05-07 10:07 49.79391 13.02195 32664 ft 472 kts 52°
2026-05-07 10:07 49.81523 13.06058 32898 ft 472 kts 52°
2026-05-07 10:07 49.83653 13.09921 33143 ft 472 kts 52°
2026-05-07 10:07 49.85778 13.13783 33376 ft 472 kts 52°
2026-05-07 10:08 49.87907 13.17660 33624 ft 471 kts 52°
2026-05-07 10:08 49.90220 13.21879 33867 ft 471 kts 52°
2026-05-07 10:08 49.94459 13.29625 34270 ft 470 kts 52°
2026-05-07 10:08 49.98676 13.37349 34699 ft 468 kts 52°
2026-05-07 10:09 50.02870 13.45056 35137 ft 466 kts 51°
2026-05-07 10:09 50.07042 13.52744 35564 ft 464 kts 51°
2026-05-07 10:09 50.11184 13.60401 36007 ft 461 kts 51°
2026-05-07 10:09 50.15299 13.68031 36412 ft 459 kts 51°
2026-05-07 10:10 50.19391 13.75638 36800 ft 457 kts 51°
2026-05-07 10:10 50.23477 13.83217 37177 ft 456 kts 51°
2026-05-07 10:10 50.27531 13.90810 37534 ft 454 kts 51°
2026-05-07 10:10 50.31577 13.98400 37768 ft 455 kts 51°
2026-05-07 10:11 50.35611 14.05993 38103 ft 454 kts 51°
2026-05-07 10:11 50.39629 14.13576 38444 ft 452 kts 51°
2026-05-07 10:11 50.43638 14.21161 38766 ft 451 kts 51°
2026-05-07 10:11 50.47642 14.28761 38885 ft 453 kts 51°
2026-05-07 10:12 50.51670 14.36440 38911 ft 458 kts 51°
2026-05-07 10:12 50.59828 14.52164 38915 ft 469 kts 53°
2026-05-07 10:13 50.67526 14.68825 38919 ft 478 kts 55°
2026-05-07 10:13 50.75396 14.85911 38943 ft 484 kts 54°
2026-05-07 10:14 50.83302 15.03113 38923 ft 483 kts 55°
2026-05-07 10:14 50.91163 15.20330 38944 ft 482 kts 55°
2026-05-07 10:14 50.95710 15.28078 38939 ft 482 kts 38°
2026-05-07 10:15 51.01096 15.34409 38946 ft 481 kts 33°
2026-05-07 10:15 51.12873 15.44470 38950 ft 481 kts 28°
2026-05-07 10:16 51.24599 15.54753 38968 ft 482 kts 28°
2026-05-07 10:16 51.36368 15.65103 38972 ft 484 kts 28°
2026-05-07 10:17 51.48180 15.75548 38970 ft 485 kts 29°
2026-05-07 10:17 51.60027 15.86092 38989 ft 489 kts 29°
2026-05-07 10:18 51.71950 15.96766 38974 ft 491 kts 29°
2026-05-07 10:18 51.80501 16.04464 38967 ft 492 kts 29°
2026-05-07 10:19 51.86484 16.09865 39005 ft 493 kts 29°
2026-05-07 10:19 51.92489 16.15307 38987 ft 495 kts 29°
2026-05-07 10:20 51.98503 16.20770 38976 ft 496 kts 29°
2026-05-07 10:20 52.04516 16.26252 38224 ft 496 kts 29°
2026-05-07 10:20 52.07485 16.28967 37186 ft 497 kts 29°
2026-05-07 10:21 52.10548 16.31765 36015 ft 500 kts 29°
2026-05-07 10:21 52.13582 16.34551 34885 ft 502 kts 29°
2026-05-07 10:21 52.16631 16.37348 33655 ft 505 kts 29°
2026-05-07 10:21 52.19711 16.40182 32254 ft 510 kts 29°
2026-05-07 10:22 52.22792 16.43020 31145 ft 507 kts 29°
2026-05-07 10:22 52.25857 16.45844 30188 ft 503 kts 29°
2026-05-07 10:22 52.28881 16.48642 29247 ft 496 kts 29°
2026-05-07 10:22 52.31858 16.51395 28423 ft 487 kts 29°
2026-05-07 10:23 52.34779 16.54105 27659 ft 478 kts 29°
2026-05-07 10:23 52.37614 16.56737 26781 ft 473 kts 29°
2026-05-07 10:23 52.40487 16.59404 26033 ft 464 kts 29°
2026-05-07 10:23 52.43232 16.61965 25292 ft 456 kts 29°
2026-05-07 10:24 52.46032 16.64577 24216 ft 459 kts 29°
2026-05-07 10:24 52.48792 16.67151 23490 ft 454 kts 29°
2026-05-07 10:24 52.51515 16.69692 22703 ft 447 kts 29°
2026-05-07 10:24 52.54195 16.72201 21969 ft 440 kts 29°
2026-05-07 10:25 52.56830 16.74681 21304 ft 432 kts 29°
2026-05-07 10:25 52.59417 16.77112 20605 ft 425 kts 29°
2026-05-07 10:25 52.61969 16.79508 19907 ft 420 kts 30°
2026-05-07 10:25 52.64486 16.81877 19240 ft 414 kts 30°
2026-05-07 10:26 52.66974 16.84222 18589 ft 409 kts 30°
2026-05-07 10:26 52.69424 16.86539 17913 ft 404 kts 30°
2026-05-07 10:26 52.71849 16.88832 17191 ft 399 kts 30°
2026-05-07 10:26 52.74244 16.91096 16487 ft 395 kts 30°
2026-05-07 10:27 52.76580 16.93318 15811 ft 391 kts 30°
2026-05-07 10:27 52.78952 16.95567 15126 ft 386 kts 30°
2026-05-07 10:27 52.81283 16.97780 14278 ft 388 kts 30°
2026-05-07 10:27 52.83611 16.99998 13568 ft 385 kts 30°
2026-05-07 10:28 52.85884 17.02160 12859 ft 380 kts 30°
2026-05-07 10:28 52.88164 17.04332 12141 ft 376 kts 30°
2026-05-07 10:28 52.90416 17.06482 11435 ft 372 kts 30°
2026-05-07 10:28 52.92643 17.08618 10751 ft 368 kts 30°
2026-05-07 10:29 52.94830 17.10708 10329 ft 356 kts 31°
2026-05-07 10:29 52.96928 17.12719 10131 ft 340 kts 30°
2026-05-07 10:29 52.98924 17.14640 10033 ft 323 kts 31°
2026-05-07 10:30 53.02631 17.18200 9940 ft 294 kts 30°
2026-05-07 10:30 53.04361 17.19873 9891 ft 282 kts 31°
2026-05-07 10:30 53.06057 17.21530 9848 ft 284 kts 31°
2026-05-07 10:30 53.07769 17.23184 9819 ft 285 kts 30°
2026-05-07 10:31 53.09490 17.24835 9802 ft 286 kts 30°
2026-05-07 10:31 53.11145 17.26654 9531 ft 286 kts 47°
2026-05-07 10:31 53.12174 17.29411 9190 ft 279 kts 70°
2026-05-07 10:31 53.12814 17.32376 9066 ft 266 kts 74°
2026-05-07 10:32 53.13395 17.35249 8800 ft 260 kts 74°
2026-05-07 10:32 53.13641 17.38174 8323 ft 254 kts 100°
2026-05-07 10:32 53.13264 17.41023 7883 ft 251 kts 109°
2026-05-07 10:32 53.12717 17.43737 7639 ft 242 kts 112°
2026-05-07 10:33 53.12162 17.46358 7286 ft 239 kts 111°
2026-05-07 10:33 53.11609 17.48968 6881 ft 239 kts 110°
2026-05-07 10:33 53.11095 17.51576 6499 ft 237 kts 108°
2026-05-07 10:33 53.10616 17.54151 6087 ft 227 kts 107°
2026-05-07 10:34 53.10168 17.56622 5411 ft 216 kts 106°
2026-05-07 10:34 53.09751 17.58967 4873 ft 200 kts 107°
2026-05-07 10:34 53.09381 17.61036 4728 ft 178 kts 108°
2026-05-07 10:34 53.09003 17.63021 4688 ft 182 kts 109°
2026-05-07 10:35 53.08591 17.65144 4204 ft 199 kts 108°
2026-05-07 10:35 53.08165 17.67340 3673 ft 199 kts 106°
2026-05-07 10:35 53.07740 17.69523 3228 ft 197 kts 104°
2026-05-07 10:35 53.07433 17.71659 2949 ft 183 kts 87°
2026-05-07 10:36 53.07582 17.73622 2827 ft 169 kts 80°
2026-05-07 10:36 53.07740 17.75503 2555 ft 154 kts 79°
2026-05-07 10:36 53.07884 17.77181 2264 ft 144 kts 77°
2026-05-07 10:36 53.08019 17.78774 2019 ft 137 kts 77°
2026-05-07 10:37 53.08171 17.80352 1975 ft 137 kts 77°
2026-05-07 10:37 53.08318 17.81901 1981 ft 134 kts 77°
2026-05-07 10:37 53.08450 17.83397 1771 ft 125 kts 77°
2026-05-07 10:37 53.08567 17.84825 1522 ft 126 kts 77°
2026-05-07 10:38 53.08684 17.86293 1312 ft 131 kts 77°
2026-05-07 10:38 53.08820 17.87831 1141 ft 136 kts 77°
2026-05-07 10:38 53.08965 17.89374 1061 ft 134 kts 78°
2026-05-07 10:38 53.09094 17.90934 939 ft 137 kts 78°
2026-05-07 10:39 53.09207 17.92452 781 ft 127 kts 77°
2026-05-07 10:39 53.09342 17.93946 565 ft 135 kts 75°
2026-05-07 10:39 53.09487 17.95497 326 ft 134 kts 78°
2026-05-07 10:39 53.09606 17.96880 222 ft 103 kts 78°
2026-05-07 10:40 53.09690 17.97844 224 ft 64 kts 81°
2026-05-07 10:40 53.09747 17.98523 221 ft 56 kts 82°
2026-05-07 10:40 53.09793 17.99103 222 ft 39 kts 82°
2026-05-07 10:40 53.09822 17.99465 224 ft 19 kts 83°
2026-05-07 10:41 53.09771 17.99622 223 ft 17 kts 163°
2026-05-07 10:41 53.09726 17.99636 222 ft 9 kts 172°
2026-05-07 10:41 53.09671 17.99648 222 ft 1 kts 172°
2026-05-07 10:41 53.09661 17.99650 222 ft 2 kts 172°
2026-05-07 10:42 53.09639 17.99656 222 ft 4 kts 172°
2026-05-07 10:42 53.09596 17.99666 222 ft 9 kts 172°
2026-05-07 10:42 53.09521 17.99682 222 ft 12 kts 172°
2026-05-07 10:42 53.09476 17.99692 222 ft 4 kts 172°
2026-05-07 10:43 53.09463 17.99695 222 ft 1 kts 172°
2026-05-07 10:43 53.09457 17.99696 222 ft 0 kts 172°